Location: *
(51.0333°S, 178.4667°E)
Time: 16:23:52
(UTC+00:00)

STARLINK-25 - Pass Details

Date: 15 November 2019
Orbit: 528 x 531 km, 53.0° (Epoch: 07 December)

Event Time Altitude Azimuth Distance (km) Brightness Sun altitude
Rises 09:28:33 0° 266° (W) 2,689 7.7 -13.8°
Reaches altitude 10° 09:30:48 10° 263° (W) 1,799 6.8 -14.0°
Maximum altitude 09:34:52 65° 180° (S) 599 4.0 -14.4°
Drops below altitude 10° 09:38:56 10° 97° (E) 1,802 6.0 -14.7°
Enters shadow 09:40:01 - 95° (E) 2,228 6.5 -14.8°
